FW1404 Weather Reports


Display with metric or nautical units.
time (UTC)temp
F
wind
direction
speed
MPH
gust
MPH
rain 1hr
in
rain 24hr
in
rain mn
in
humidity
%
barometer
mb
20190121173408 23 200 3.0 6.0 0.00 0.00 0.00 88 1019.9
20190121172920 23 203 2.0 4.0 0.00 0.00 0.00 87 1020.0
20190121172407 23 210 3.0 4.0 0.00 0.00 0.00 88 1020.0
20190121171907 23 215 3.0 4.0 0.00 0.00 0.00 88 1020.0
20190121171409 23 213 2.0 4.0 0.00 0.00 0.00 88 1020.1
20190121170909 23 304 1.0 3.0 0.00 0.00 0.00 88 1020.1
20190121170410 23 253 1.0 2.0 0.00 0.00 0.00 88 1020.0
20190121165908 23 213 1.0 1.0 0.00 0.00 0.00 88 1020.1
20190121165409 23 213 1.0 4.0 0.00 0.00 0.00 88 1020.0
20190121164906 23 213 3.0 4.0 0.00 0.00 0.00 87 1020.2
20190121164406 24 191 1.0 6.0 0.00 0.00 0.00 87 1020.1
20190121163907 24 191 4.0 6.0 0.00 0.00 0.00 87 1020.0
20190121163409 24 232 1.0 2.0 0.00 0.00 0.00 87 1020.0
20190121162910 24 232 1.0 3.0 0.00 0.00 0.00 87 1019.9
20190121162408 24 248 2.0 2.0 0.00 0.00 0.00 87 1020.1
20190121161910 24 314 1.0 2.0 0.00 0.00 0.00 87 1020.1
20190121161411 24 314 1.0 2.0 0.00 0.00 0.00 87 1020.2
20190121160910 24 282 0.0 3.0 0.00 0.00 0.00 87 1020.1
20190121160410 24 282 2.0 4.0 0.00 0.00 0.00 87 1020.1
20190121155910 24 284 1.0 5.0 0.00 0.00 0.00 87 1020.2
20190121155409 24 325 1.0 5.0 0.00 0.00 0.00 87 1020.2
20190121154911 24 307 2.0 5.0 0.00 0.00 0.00 87 1020.3
20190121154409 24 349 2.0 2.0 0.00 0.00 0.00 87 1020.3
20190121153910 24 335 0.0 3.0 0.00 0.00 0.00 87 1020.3
20190121153405 24 335 1.0 3.0 0.00 0.00 0.00 87 1020.3
20190121152857 24 265 2.0 3.0 0.00 0.00 0.00 87 1020.3
20190121152359 24 265 1.0 3.0 0.00 0.00 0.00 87 1020.2
20190121151853 24 262 1.0 3.0 0.00 0.00 0.00 87 1020.3
20190121151354 24 277 2.0 2.0 0.00 0.00 0.00 87 1020.3
20190121150852 24 277 1.0 2.0 0.00 0.00 0.00 87 1020.4
20190121150401 24 186 1.0 3.0 0.00 0.00 0.00 87 1020.2
20190121145851 24 197 1.0 4.0 0.00 0.00 0.00 87 1020.1
20190121145351 24 232 2.0 6.0 0.00 0.00 0.00 87 1020.2
20190121144857 24 196 5.0 6.0 0.00 0.00 0.00 87 1020.1
20190121144351 24 214 3.0 5.0 0.00 0.00 0.00 87 1020.1
20190121143851 24 196 4.0 5.0 0.00 0.00 0.00 86 1020.3
20190121143353 24 208 3.0 4.0 0.00 0.00 0.00 86 1020.3
20190121142851 24 182 3.0 6.0 0.00 0.00 0.00 86 1020.2
20190121142349 24 193 6.0 6.0 0.00 0.00 0.00 86 1020.1
20190121141855 24 217 2.0 5.0 0.00 0.00 0.00 86 1020.3
20190121141353 25 241 2.0 4.0 0.00 0.00 0.00 86 1020.3
20190121140850 24 248 3.0 5.0 0.00 0.00 0.00 86 1020.5
20190121140358 24 290 2.0 5.0 0.00 0.00 0.00 86 1020.5
20190121135851 24 218 1.0 6.0 0.00 0.00 0.00 86 1020.5
20190121135350 25 208 5.0 6.0 0.00 0.00 0.00 86 1020.6
20190121134854 25 235 3.0 5.0 0.00 0.00 0.00 86 1020.5
20190121134351 25 245 4.0 6.0 0.00 0.00 0.00 86 1020.6
20190121133852 25 252 6.0 6.0 0.00 0.00 0.00 86 1020.6
20190121133352 25 248 3.0 7.0 0.00 0.00 0.00 86 1020.7
20190121132851 25 210 5.0 7.0 0.00 0.00 0.00 87 1020.6
20190121132350 25 245 3.0 6.0 0.00 0.00 0.00 87 1020.7
20190121131854 25 238 5.0 6.0 0.00 0.00 0.00 87 1020.7
20190121131348 25 246 5.0 7.0 0.00 0.00 0.00 86 1020.8
20190121130846 25 179 4.0 7.0 0.00 0.00 0.00 87 1020.8
20190121130349 25 197 6.0 7.0 0.00 0.00 0.00 87 1020.9
20190121125850 25 200 4.0 6.0 0.00 0.00 0.00 87 1020.9
20190121125350 25 179 3.0 4.0 0.00 0.00 0.00 87 1021.0
20190121124854 25 213 3.0 5.0 0.00 0.00 0.00 86 1021.1
20190121124350 25 198 4.0 5.0 0.00 0.00 0.00 86 1021.2
20190121123848 25 200 4.0 6.0 0.00 0.00 0.00 87 1021.2
20190121123351 25 249 5.0 7.0 0.00 0.00 0.00 87 1021.2
20190121122848 25 283 4.0 7.0 0.00 0.00 0.00 87 1021.3
20190121122347 25 196 2.0 6.0 0.00 0.00 0.00 87 1021.4
20190121121851 25 204 4.0 7.0 0.00 0.00 0.00 87 1021.4
20190121121350 25 225 5.0 7.0 0.00 0.00 0.00 87 1021.5
20190121120845 25 245 4.0 7.0 0.00 0.00 0.00 87 1021.6
20190121120351 24 231 5.0 7.0 0.00 0.00 0.00 87 1021.6
20190121115847 24 204 5.0 6.0 0.00 0.00 0.00 87 1021.6
20190121115348 24 196 4.0 7.0 0.00 0.00 0.00 87 1021.7
20190121114849 24 208 5.0 6.0 0.00 0.00 0.00 87 1021.7
20190121114347 24 197 4.0 6.0 0.00 0.00 0.00 87 1021.8
20190121113847 24 224 2.0 4.0 0.00 0.00 0.00 88 1021.8
20190121113350 24 262 4.0 7.0 0.00 0.00 0.00 88 1021.9
20190121112846 24 253 6.0 7.0 0.00 0.00 0.00 88 1021.8
20190121112348 24 190 3.0 5.0 0.00 0.00 0.00 88 1022.0
20190121111850 24 225 3.0 5.0 0.00 0.00 0.00 88 1022.0
20190121111349 24 238 0.0 6.0 0.00 0.00 0.00 88 1022.1
20190121110846 24 201 4.0 7.0 0.00 0.00 0.00 88 1022.1
20190121110346 24 220 4.0 6.0 0.00 0.00 0.00 88 1022.2
20190121105844 23 191 2.0 5.0 0.00 0.00 0.00 88 1022.2
20190121105345 23 200 4.0 6.0 0.00 0.00 0.00 88 1022.2
20190121104849 23 200 5.0 7.0 0.00 0.00 0.00 87 1022.3
20190121104345 23 191 5.0 7.0 0.00 0.00 0.00 88 1022.4
20190121103847 24 190 6.0 6.0 0.00 0.00 0.00 88 1022.4
20190121103347 23 222 2.0 4.0 0.00 0.00 0.00 88 1022.5
20190121102843 24 201 2.0 5.0 0.00 0.00 0.00 88 1022.6
20190121102344 23 232 3.0 5.0 0.00 0.00 0.00 88 1022.6
20190121101849 23 232 2.0 4.0 0.00 0.00 0.00 88 1022.5
20190121101344 23 196 3.0 6.0 0.00 0.00 0.00 88 1022.5
20190121100844 23 225 5.0 9.0 0.00 0.00 0.00 88 1022.6
20190121100344 23 224 6.0 9.0 0.00 0.00 0.00 88 1022.6
20190121095844 23 184 6.0 9.0 0.00 0.00 0.00 88 1022.6
20190121095343 23 217 4.0 7.0 0.00 0.00 0.00 88 1022.6
20190121094845 23 184 6.0 7.0 0.00 0.00 0.00 88 1022.7
20190121094343 23 182 5.0 6.0 0.00 0.00 0.00 88 1022.7
20190121093843 24 210 5.0 6.0 0.00 0.00 0.00 88 1022.7
20190121093345 24 228 4.0 6.0 0.00 0.00 0.00 88 1022.7
20190121092843 24 207 3.0 6.0 0.00 0.00 0.00 88 1022.7
20190121092343 24 215 4.0 6.0 0.00 0.00 0.00 88 1022.6
20190121091844 24 218 4.0 4.0 0.00 0.00 0.00 88 1022.6
20190121091344 24 218 3.0 5.0 0.00 0.00 0.00 88 1022.7
20190121090842 24 220 3.0 6.0 0.00 0.00 0.00 88 1022.6
20190121090346 24 196 5.0 6.0 0.00 0.00 0.00 88 1022.6
20190121085845 24 197 3.0 5.0 0.00 0.00 0.00 88 1022.6
20190121085345 23 213 2.0 5.0 0.00 0.00 0.00 88 1022.6
20190121084849 23 193 3.0 6.0 0.00 0.00 0.00 88 1022.6
20190121084338 24 194 4.0 6.0 0.00 0.00 0.00 88 1022.6
20190121083835 24 187 4.0 5.0 0.00 0.00 0.00 88 1022.6
20190121083335 24 222 4.0 6.0 0.00 0.00 0.00 88 1022.6
20190121082836 24 197 5.0 6.0 0.00 0.00 0.00 88 1022.5
20190121082337 24 189 5.0 6.0 0.00 0.00 0.00 88 1022.6
20190121081839 24 208 3.0 4.0 0.00 0.00 0.00 88 1022.5
20190121081340 24 207 3.0 4.0 0.00 0.00 0.00 88 1022.5
20190121080839 24 207 1.0 5.0 0.00 0.00 0.00 88 1022.5
20190121080325 24 207 3.0 5.0 0.00 0.00 0.00 88 1022.5
20190121075827 24 238 3.0 6.0 0.00 0.00 0.00 88 1022.6
20190121075324 24 228 3.0 7.0 0.00 0.00 0.00 88 1022.5
20190121074823 24 200 4.0 4.0 0.00 0.00 0.00 88 1022.5
20190121074311 24 225 3.0 4.0 0.00 0.00 0.00 88 1022.5
20190121073812 24 220 2.0 3.0 0.00 0.00 0.00 88 1022.5
20190121073307 24 265 2.0 4.0 0.00 0.00 0.00 88 1022.4
20190121072809 24 275 2.0 5.0 0.00 0.00 0.00 88 1022.4
20190121072308 24 215 3.0 5.0 0.00 0.00 0.00 88 1022.4
20190121071808 24 221 4.0 5.0 0.00 0.00 0.00 88 1022.4
20190121071308 24 203 3.0 4.0 0.00 0.00 0.00 88 1022.3
20190121070808 24 241 1.0 3.0 0.00 0.00 0.00 88 1022.3
20190121070308 24 255 1.0 4.0 0.00 0.00 0.00 88 1022.3
20190121065808 24 283 2.0 4.0 0.00 0.00 0.00 88 1022.4
20190121065309 24 268 3.0 6.0 0.00 0.00 0.00 88 1022.3
20190121064809 24 251 2.0 4.0 0.00 0.00 0.00 88 1022.3
20190121064310 24 283 1.0 5.0 0.00 0.00 0.00 88 1022.2
20190121063809 24 259 3.0 6.0 0.00 0.00 0.00 88 1022.2
20190121063308 24 220 4.0 4.0 0.00 0.00 0.00 88 1022.2
20190121062809 24 208 4.0 5.0 0.00 0.00 0.00 88 1022.2
20190121062311 24 191 4.0 5.0 0.00 0.00 0.00 88 1022.2
20190121061809 24 214 3.0 5.0 0.00 0.00 0.00 88 1022.1
20190121061310 24 235 3.0 5.0 0.00 0.00 0.00 88 1022.2
20190121060810 24 249 2.0 5.0 0.00 0.00 0.00 88 1022.1
20190121060309 24 224 2.0 5.0 0.00 0.00 0.00 88 1022.2
20190121055811 24 218 3.0 4.0 0.00 0.00 0.00 89 1022.1
20190121055311 24 208 3.0 4.0 0.00 0.00 0.00 88 1022.1
20190121054810 24 239 2.0 4.0 0.00 0.00 0.00 88 1022.1
20190121054309 24 222 2.0 3.0 0.00 0.00 0.00 88 1022.1
20190121053808 24 222 3.0 4.0 0.00 0.00 0.00 88 1022.0
20190121053308 24 206 2.0 4.0 0.00 0.00 0.00 88 1022.1
20190121052807 24 220 2.0 4.0 0.00 0.00 0.00 88 1022.1
20190121052307 24 206 2.0 6.0 0.00 0.00 0.00 88 1022.1
20190121051809 24 215 5.0 6.0 0.00 0.00 0.00 89 1022.0
20190121051309 24 249 4.0 5.0 0.00 0.00 0.00 89 1022.1
20190121050810 24 217 2.0 4.0 0.00 0.00 0.00 89 1022.1
20190121050311 24 220 2.0 3.0 0.00 0.00 0.00 89 1022.1
20190121045809 24 266 1.0 3.0 0.00 0.00 0.00 89 1022.2
20190121045310 24 266 2.0 3.0 0.00 0.00 0.00 89 1022.1
20190121044810 24 263 2.0 3.0 0.00 0.00 0.00 89 1022.1
20190121044238 24 245 1.0 4.0 0.00 0.00 0.00 89 1022.1
20190121043738 24 284 3.0 5.0 0.00 0.00 0.00 89 1022.1
20190121043237 24 238 3.0 5.0 0.00 0.00 0.00 89 1022.1
20190121042737 24 225 2.0 5.0 0.00 0.00 0.00 89 1022.0
20190121042241 24 214 2.0 5.0 0.00 0.00 0.00 89 1022.0
20190121041736 25 215 4.0 6.0 0.00 0.00 0.00 89 1022.1
20190121041235 25 204 4.0 6.0 0.00 0.00 0.00 89 1022.0
20190121040737 25 234 3.0 3.0 0.00 0.00 0.00 89 1022.1
20190121040236 25 269 2.0 4.0 0.00 0.00 0.00 89 1022.0
20190121035736 25 269 2.0 4.0 0.00 0.00 0.00 89 1022.1
20190121035236 25 241 1.0 3.0 0.00 0.00 0.00 89 1022.1
20190121034738 25 241 1.0 4.0 0.00 0.00 0.00 89 1022.1
20190121034236 25 260 3.0 3.0 0.00 0.00 0.00 89 1022.2
20190121033734 25 248 2.0 4.0 0.00 0.00 0.00 89 1022.2
20190121033235 25 313 1.0 4.0 0.00 0.00 0.00 88 1022.2
20190121032735 25 313 2.0 4.0 0.00 0.00 0.00 88 1022.2
20190121032235 25 307 1.0 3.0 0.00 0.00 0.00 88 1022.2
20190121031735 25 308 2.0 3.0 0.00 0.00 0.00 88 1022.1
20190121031233 25 300 1.0 3.0 0.00 0.00 0.00 88 1022.1
20190121030734 25 306 1.0 3.0 0.00 0.00 0.00 88 1022.1
20190121030233 25 307 1.0 5.0 0.00 0.00 0.00 88 1022.2
20190121025735 25 262 2.0 5.0 0.00 0.00 0.00 89 1022.2
20190121025234 25 296 4.0 5.0 0.00 0.00 0.00 89 1022.2
20190121024734 25 272 3.0 5.0 0.00 0.00 0.00 89 1022.2
20190121024234 25 256 1.0 5.0 0.00 0.00 0.00 89 1022.2
20190121023733 25 227 4.0 4.0 0.00 0.00 0.00 89 1022.2
20190121023234 25 218 4.0 2.0 0.00 0.00 0.00 89 1022.3
20190121022734 25 275 0.0 2.0 0.00 0.00 0.00 89 1022.3
20190121022233 25 275 1.0 2.0 0.00 0.00 0.00 89 1022.4
20190121021733 25 275 1.0 3.0 0.00 0.00 0.00 89 1022.4
20190121021233 25 275 2.0 3.0 0.00 0.00 0.00 89 1022.3
20190121020733 25 275 1.0 3.0 0.00 0.00 0.00 89 1022.4
20190121020233 25 275 1.0 2.0 0.00 0.00 0.00 89 1022.4
20190121015736 25 275 1.0 3.0 0.00 0.00 0.00 88 1022.4
20190121015235 25 275 2.0 3.0 0.00 0.00 0.00 89 1022.4
20190121014735 25 275 1.0 3.0 0.00 0.00 0.00 88 1022.4
20190121014236 25 275 1.0 3.0 0.00 0.00 0.00 88 1022.4
20190121013735 25 275 0.0 3.0 0.00 0.00 0.00 88 1022.4
20190121013236 25 275 2.0 4.0 0.00 0.00 0.00 88 1022.4
20190121012735 25 286 3.0 3.0 0.00 0.00 0.00 88 1022.4
20190121012236 25 293 1.0 2.0 0.00 0.00 0.00 88 1022.4
20190121011735 25 293 2.0 4.0 0.00 0.00 0.00 88 1022.5
20190121011234 25 293 2.0 4.0 0.00 0.00 0.00 88 1022.3
20190121010735 25 293 1.0 2.0 0.00 0.00 0.00 88 1022.4
20190121010235 25 293 1.0 3.0 0.00 0.00 0.00 88 1022.3
20190121005732 25 293 2.0 3.0 0.00 0.00 0.00 88 1022.3
20190121005231 25 293 2.0 4.0 0.00 0.00 0.00 88 1022.2
20190121004732 25 293 2.0 4.0 0.00 0.00 0.00 88 1022.2
20190121004231 25 292 2.0 4.0 0.00 0.00 0.00 88 1022.2
20190121003730 25 292 1.0 2.0 0.00 0.00 0.00 88 1022.1
20190121003231 25 292 0.0 2.0 0.00 0.00 0.00 88 1022.2
20190121002733 25 292 1.0 3.0 0.00 0.00 0.00 88 1022.2
20190121002235 25 292 2.0 4.0 0.00 0.00 0.00 88 1022.1
20190121001734 25 292 2.0 4.0 0.00 0.00 0.00 88 1022.1
20190121001234 25 292 2.0 3.0 0.00 0.00 0.00 88 1022.1
20190121000733 25 292 0.0 2.0 0.00 0.00 0.00 88 1022.1
20190121000232 25 292 0.0 2.0 0.00 0.00 0.00 88 1022.1
20190120235733 25 292 0.0 2.0 0.00 0.00 0.00 88 1022.0
20190120235232 25 292 1.0 2.0 0.00 0.00 0.00 88 1022.1
20190120234733 25 292 0.0 2.0 0.00 0.00 0.00 88 1022.1
20190120234233 25 292 1.0 2.0 0.00 0.00 0.00 88 1022.1
20190120233732 25 292 1.0 2.0 0.00 0.00 0.00 88 1022.1
20190120233233 25 292 0.0 3.0 0.00 0.00 0.00 88 1022.1
20190120232733 25 290 1.0 3.0 0.00 0.00 0.00 88 1022.0
20190120232233 25 290 1.0 1.0 0.00 0.00 0.00 88 1022.1
20190120231732 25 290 0.0 2.0 0.00 0.00 0.00 88 1022.1
20190120231230 25 290 1.0 4.0 0.00 0.00 0.00 88 1022.1
20190120230729 26 290 3.0 4.0 0.00 0.00 0.00 88 1022.1
20190120230229 26 352 2.0 2.0 0.00 0.00 0.00 88 1022.0
20190120225729 26 352 1.0 5.0 0.00 0.00 0.00 88 1022.0
20190120225229 26 352 3.0 5.0 0.00 0.00 0.00 88 1021.9
20190120224730 26 349 1.0 4.0 0.00 0.00 0.00 88 1022.0
20190120224229 26 355 2.0 5.0 0.00 0.00 0.00 88 1021.9
20190120223730 26 2 3.0 4.0 0.00 0.00 0.00 88 1022.0
20190120223228 26 356 1.0 2.0 0.00 0.00 0.00 88 1021.9
20190120222732 26 356 1.0 2.0 0.00 0.00 0.00 88 1021.9
20190120222228 26 356 0.0 4.0 0.00 0.00 0.00 88 1021.8
20190120221726 26 356 1.0 5.0 0.00 0.00 0.00 88 1021.9
20190120221229 26 6 3.0 4.0 0.00 0.00 0.00 88 1021.8
20190120220728 26 1 2.0 3.0 0.00 0.00 0.00 88 1022.0
20190120220253 25 1 3.0 5.0 0.00 0.00 0.00 88 1021.9
20190120215751 25 359 3.0 5.0 0.00 0.00 0.00 88 1021.8
20190120215252 25 15 3.0 5.0 0.00 0.00 0.00 88 1021.9
20190120214749 25 6 2.0 5.0 0.00 0.00 0.00 88 1021.9
20190120214247 25 15 4.0 6.0 0.00 0.00 0.00 88 1021.8
20190120213746 25 358 3.0 6.0 0.00 0.00 0.00 88 1021.6
20190120213227 25 16 3.0 5.0 0.00 0.00 0.00 88 1021.6
20190120212727 25 351 3.0 5.0 0.00 0.00 0.00 88 1021.5
20190120212226 25 10 3.0 5.0 0.00 0.00 0.00 89 1021.5
20190120211727 25 13 3.0 5.0 0.00 0.00 0.00 89 1021.4
20190120211227 25 356 2.0 3.0 0.00 0.00 0.00 88 1021.4
20190120210729 25 356 2.0 3.0 0.00 0.00 0.00 88 1021.5
20190120210226 25 355 2.0 3.0 0.00 0.00 0.00 88 1021.4
20190120205725 25 355 2.0 4.0 0.00 0.00 0.00 88 1021.4
20190120205226 24 354 2.0 4.0 0.00 0.00 0.00 89 1021.3
20190120204734 24 354 2.0 4.0 0.00 0.00 0.00 88 1021.3
20190120204246 24 356 3.0 4.0 0.00 0.00 0.00 89 1021.3
20190120203729 24 2 3.0 4.0 0.00 0.00 0.00 89 1021.1
20190120203227 24 1 1.0 2.0 0.00 0.00 0.00 88 1021.1
20190120202726 23 1 0.0 2.0 0.00 0.00 0.00 88 1021.0
20190120202227 23 8 1.0 3.0 0.00 0.00 0.00 88 1021.0
20190120201724 23 8 2.0 3.0 0.00 0.00 0.00 88 1021.0
20190120201226 23 8 0.0 1.0 0.00 0.00 0.00 87 1020.9
20190120200727 23 8 0.0 2.0 0.00 0.00 0.00 87 1020.9
20190120200227 23 8 0.0 2.0 0.00 0.00 0.00 87 1020.8
20190120195745 23 8 0.0 2.0 0.00 0.00 0.00 87 1020.7
20190120195225 23 8 1.0 2.0 0.00 0.00 0.00 87 1020.6
20190120194725 23 8 1.0 2.0 0.00 0.00 0.00 87 1020.6
20190120194226 23 8 0.0 1.0 0.00 0.00 0.00 87 1020.6
20190120193724 23 8 0.0 2.0 0.00 0.00 0.00 87 1020.5
20190120193228 23 8 1.0 2.0 0.00 0.00 0.00 87 1020.4
20190120192727 22 8 1.0 3.0 0.00 0.00 0.00 87 1020.4
20190120192226 22 9 2.0 3.0 0.00 0.00 0.00 86 1020.3
20190120191725 23 12 1.0 2.0 0.00 0.00 0.00 86 1020.3
20190120191226 23 12 0.0 2.0 0.00 0.00 0.00 86 1020.2
20190120190724 23 12 1.0 1.0 0.00 0.00 0.00 86 1020.1
20190120190224 23 12 0.0 0.0 0.00 0.00 0.00 86 1020.1
20190120185723 23 12 0.0 1.0 0.00 0.00 0.00 86 1020.0
20190120185223 23 12 0.0 2.0 0.00 0.00 0.00 86 1020.0
20190120184727 23 12 1.0 2.0 0.00 0.00 0.00 86 1020.0
20190120184224 24 12 0.0 2.0 0.00 0.00 0.00 86 1020.0
20190120183723 24 12 2.0 3.0 0.00 0.00 0.00 86 1020.0
20190120183232 24 12 2.0 3.0 0.00 0.00 0.00 85 1020.0
20190120182723 24 12 1.0 2.0 0.00 0.00 0.00 85 1019.9
20190120182223 24 12 0.0 0.0 0.00 0.00 0.00 85 1019.9
20190120181734 24 12 0.0 0.0 0.00 0.00 0.00 85 1019.8
20190120181233 24 12 0.0 1.0 0.00 0.00 0.00 85 1019.8
20190120180725 24 12 0.0 1.0 0.00 0.00 0.00 85 1019.6
20190120180231 24 12 0.0 1.0 0.00 0.00 0.00 85 1019.5
20190120175738 25 12 0.0 0.0 0.00 0.00 0.00 85 1019.5
20190120175223 25 12 0.0 1.0 0.00 0.00 0.00 85 1019.5
20190120174722 25 12 0.0 1.0 0.00 0.00 0.00 84 1019.5
20190120174222 25 12 1.0 1.0 0.00 0.00 0.00 84 1019.6